• en Belgique
  • Liste des pays
  • À 7 jours
  • Température de l'eau
  • Carte satellitaire
  • Carte météo
  • Widgets météo
  • user-avatar
    Se connecter

    Météo par heure à Hasselt

    Ce jour, 28 Mai, Lundi

    Heure Température Précipitation Vent Pression Humidité
    00:00 +20°C° 0,1 mm 1 m/s 759 mmHg 86%
    01:00 +19°C° 0 mm 1 m/s 759 mmHg 86%
    02:00 +19°C° 0 mm 1 m/s 759 mmHg 86%
    03:00 +19°C° 0 mm 1 m/s 759 mmHg 86%
    04:00 +20°C° 0 mm 1 m/s 759 mmHg 84%
    05:00 +21°C° 0 mm 1 m/s 759 mmHg 82%
    06:00 +22°C° 0 mm 1 m/s 759 mmHg 80%
    07:00 +23°C° 0 mm 1 m/s 759 mmHg 73%
    08:00 +25°C° 0 mm 1 m/s 759 mmHg 67%
    09:00 +27°C° 0 mm 2 m/s 759 mmHg 61%
    10:00 +28°C° 0 mm 2 m/s 759 mmHg 57%
    11:00 +29°C° 0 mm 2 m/s 759 mmHg 54%
    12:00 +30°C° 0 mm 2 m/s 759 mmHg 50%
    13:00 +30°C° 0 mm 2 m/s 759 mmHg 50%
    14:00 +30°C° 0 mm 3 m/s 758 mmHg 50%
    15:00 +30°C° 0 mm 3 m/s 758 mmHg 50%
    16:00 +29°C° 0,1 mm 3 m/s 758 mmHg 56%
    17:00 +28°C° 0,1 mm 3 m/s 758 mmHg 61%
    18:00 +27°C° 0,1 mm 2 m/s 758 mmHg 67%
    19:00 +26°C° 0,5 mm 2 m/s 758 mmHg 71%
    20:00 +25°C° 0,5 mm 2 m/s 758 mmHg 74%
    21:00 +22°C° 0,5 mm 3 m/s 758 mmHg 78%
    22:00 +23°C° 0,4 mm 2 m/s 758 mmHg 81%
    23:00 +21°C° 0,4 mm 2 m/s 758 mmHg 84%

    Demain, 29 Mai, Mardi

    Heure Température Précipitation Vent Pression Humidité
    00:00 +21°C° 0,4 mm 2 m/s 758 mmHg 87%
    01:00 +20°C° 1 mm 2 m/s 758 mmHg 89%
    02:00 +20°C° 1 mm 2 m/s 758 mmHg 91%
    03:00 +19°C° 1 mm 2 m/s 757 mmHg 93%
    04:00 +20°C° 0,1 mm 2 m/s 757 mmHg 91%
    05:00 +20°C° 0,1 mm 2 m/s 757 mmHg 90%
    06:00 +21°C° 0,1 mm 2 m/s 757 mmHg 89%
    07:00 +24°C° 0,3 mm 2 m/s 757 mmHg 83%
    08:00 +25°C° 0,3 mm 2 m/s 757 mmHg 78%
    09:00 +27°C° 0,3 mm 2 m/s 757 mmHg 73%
    10:00 +27°C° 1,1 mm 2 m/s 756 mmHg 70%
    11:00 +28°C° 1,1 mm 2 m/s 756 mmHg 67%
    12:00 +28°C° 1,1 mm 1 m/s 756 mmHg 64%
    13:00 +28°C° 0,7 mm 2 m/s 756 mmHg 67%
    14:00 +27°C° 0,7 mm 2 m/s 755 mmHg 70%
    15:00 +27°C° 0,7 mm 2 m/s 755 mmHg 73%
    16:00 +26°C° 0,6 mm 2 m/s 755 mmHg 76%
    17:00 +25°C° 0,6 mm 2 m/s 754 mmHg 80%
    18:00 +25°C° 0,6 mm 2 m/s 754 mmHg 83%
    19:00 +24°C° 1,1 mm 2 m/s 754 mmHg 85%
    20:00 +21°C° 1,1 mm 2 m/s 754 mmHg 87%
    21:00 +21°C° 1,1 mm 1 m/s 755 mmHg 89%
    22:00 +21°C° 0,2 mm 1 m/s 754 mmHg 90%
    23:00 +19°C° 0,2 mm 2 m/s 754 mmHg 91%

    Après-demain, 30 Mai, Mercredi

    Heure Température Précipitation Vent Pression Humidité
    00:00 +19°C° 0,2 mm 2 m/s 754 mmHg 92%
    01:00 +18°C° 0,1 mm 2 m/s 754 mmHg 93%
    02:00 +18°C° 0,1 mm 2 m/s 754 mmHg 93%
    03:00 +18°C° 0,1 mm 1 m/s 754 mmHg 94%
    04:00 +19°C° 0 mm 1 m/s 754 mmHg 93%
    05:00 +19°C° 0 mm 2 m/s 754 mmHg 91%
    06:00 +20°C° 0 mm 2 m/s 754 mmHg 89%
    07:00 +21°C° 0 mm 2 m/s 754 mmHg 83%
    08:00 +24°C° 0 mm 2 m/s 754 mmHg 76%
    09:00 +25°C° 0 mm 2 m/s 755 mmHg 70%
    10:00 +26°C° 0 mm 2 m/s 754 mmHg 66%
    11:00 +27°C° 0 mm 2 m/s 754 mmHg 61%
    12:00 +28°C° 0 mm 2 m/s 754 mmHg 57%
    13:00 +28°C° 0,4 mm 2 m/s 754 mmHg 58%
    14:00 +28°C° 0,4 mm 2 m/s 754 mmHg 60%
    15:00 +28°C° 0,4 mm 2 m/s 754 mmHg 61%
    16:00 +27°C° 0,6 mm 2 m/s 754 mmHg 66%
    17:00 +26°C° 0,6 mm 2 m/s 754 mmHg 72%
    18:00 +25°C° 0,6 mm 2 m/s 754 mmHg 77%
    19:00 +24°C° 0,1 mm 2 m/s 754 mmHg 81%
    20:00 +21°C° 0,1 mm 2 m/s 755 mmHg 84%
    21:00 +20°C° 0,1 mm 2 m/s 755 mmHg 88%
    22:00 +20°C° 0,3 mm 2 m/s 755 mmHg 89%
    23:00 +20°C° 0,3 mm 1 m/s 755 mmHg 91%

    31 Mai, Jeudi

    Heure Température Précipitation Vent Pression Humidité
    00:00 +20°C° 0,3 mm 1 m/s 755 mmHg 92%
    01:00 +19°C° 0,1 mm 1 m/s 755 mmHg 93%
    02:00 +19°C° 0,1 mm 1 m/s 755 mmHg 93%
    03:00 +19°C° 0,1 mm 1 m/s 755 mmHg 94%
    04:00 +20°C° 0,2 mm 1 m/s 755 mmHg 93%
    05:00 +21°C° 0,2 mm 1 m/s 755 mmHg 91%
    06:00 +21°C° 0,2 mm 1 m/s 755 mmHg 90%
    07:00 +23°C° 0,9 mm 1 m/s 755 mmHg 85%
    08:00 +24°C° 0,9 mm 2 m/s 755 mmHg 80%
    09:00 +26°C° 0,9 mm 2 m/s 756 mmHg 75%
    10:00 +26°C° 1,2 mm 2 m/s 756 mmHg 72%
    11:00 +27°C° 1,2 mm 2 m/s 756 mmHg 69%
    12:00 +27°C° 1,2 mm 2 m/s 756 mmHg 66%
    13:00 +27°C° 1,4 mm 2 m/s 756 mmHg 68%
    14:00 +27°C° 1,4 mm 2 m/s 755 mmHg 70%
    15:00 +27°C° 1,4 mm 1 m/s 755 mmHg 72%
    16:00 +26°C° 1,3 mm 2 m/s 755 mmHg 76%
    17:00 +25°C° 1,3 mm 2 m/s 756 mmHg 80%
    18:00 +23°C° 1,3 mm 2 m/s 756 mmHg 84%
    19:00 +23°C° 0,7 mm 2 m/s 756 mmHg 86%
    20:00 +21°C° 0,7 mm 2 m/s 756 mmHg 88%
    21:00 +20°C° 0,7 mm 2 m/s 757 mmHg 89%
    22:00 +20°C° 0,7 mm 2 m/s 757 mmHg 90%
    23:00 +20°C° 0,7 mm 2 m/s 757 mmHg 91%

    1 Juin, Vendredi

    Heure Température Précipitation Vent Pression Humidité
    00:00 +19°C° 0,7 mm 2 m/s 757 mmHg 92%
    01:00 +19°C° 0,1 mm 2 m/s 757 mmHg 92%
    02:00 +19°C° 0,1 mm 2 m/s 757 mmHg 92%
    03:00 +19°C° 0,1 mm 2 m/s 757 mmHg 91%
    04:00 +19°C° 0,2 mm 2 m/s 757 mmHg 90%
    05:00 +19°C° 0,2 mm 2 m/s 757 mmHg 89%
    06:00 +20°C° 0,2 mm 3 m/s 758 mmHg 88%
    07:00 +21°C° 0,3 mm 3 m/s 758 mmHg 83%
    08:00 +22°C° 0,3 mm 4 m/s 758 mmHg 79%
    09:00 +25°C° 0,3 mm 4 m/s 758 mmHg 75%
    10:00 +26°C° 0,4 mm 4 m/s 758 mmHg 69%
    11:00 +27°C° 0,4 mm 4 m/s 758 mmHg 64%
    12:00 +28°C° 0,4 mm 4 m/s 758 mmHg 59%
    13:00 +28°C° 0,1 mm 4 m/s 758 mmHg 57%
    14:00 +29°C° 0,1 mm 4 m/s 758 mmHg 55%
    15:00 +29°C° 0,1 mm 4 m/s 757 mmHg 53%
    16:00 +28°C° 0,2 mm 4 m/s 758 mmHg 57%
    17:00 +27°C° 0,2 mm 3 m/s 758 mmHg 62%
    18:00 +26°C° 0,2 mm 3 m/s 758 mmHg 66%
    19:00 +24°C° 0 mm 3 m/s 758 mmHg 67%
    20:00 +22°C° 0 mm 3 m/s 759 mmHg 69%
    21:00 +20°C° 0 mm 3 m/s 759 mmHg 71%
    22:00 +20°C° 0 mm 3 m/s 759 mmHg 72%
    23:00 +19°C° 0 mm 3 m/s 760 mmHg 74%

    2 Juin, Samedi

    Heure Température Précipitation Vent Pression Humidité
    00:00 +18°C° 0 mm 3 m/s 760 mmHg 76%
    01:00 +17°C° 0 mm 3 m/s 760 mmHg 77%
    02:00 +17°C° 0 mm 3 m/s 760 mmHg 77%
    03:00 +16°C° 0 mm 2 m/s 760 mmHg 78%
    04:00 +17°C° 0 mm 2 m/s 760 mmHg 77%
    05:00 +18°C° 0 mm 3 m/s 760 mmHg 75%
    06:00 +19°C° 0 mm 3 m/s 761 mmHg 74%
    07:00 +20°C° 0 mm 3 m/s 761 mmHg 69%
    08:00 +22°C° 0 mm 3 m/s 761 mmHg 64%
    09:00 +25°C° 0 mm 3 m/s 761 mmHg 60%
    10:00 +26°C° 0 mm 3 m/s 761 mmHg 56%
    11:00 +27°C° 0 mm 3 m/s 761 mmHg 53%
    12:00 +27°C° 0 mm 4 m/s 761 mmHg 50%
    13:00 +28°C° 0 mm 3 m/s 761 mmHg 49%
    14:00 +28°C° 0 mm 3 m/s 760 mmHg 48%
    15:00 +28°C° 0 mm 3 m/s 760 mmHg 47%
    16:00 +27°C° 0 mm 3 m/s 760 mmHg 51%
    17:00 +26°C° 0 mm 3 m/s 760 mmHg 56%
    18:00 +25°C° 0 mm 3 m/s 761 mmHg 60%
    19:00 +22°C° 0 mm 3 m/s 761 mmHg 62%
    20:00 +21°C° 0 mm 3 m/s 761 mmHg 64%
    21:00 +19°C° 0 mm 3 m/s 762 mmHg 66%
    22:00 +18°C° 0 mm 3 m/s 762 mmHg 68%
    23:00 +17°C° 0 mm 2 m/s 762 mmHg 69%
    Voir plus